Location: Unspecified
(0.0000°N, 0.0000°E)
Time: 19:40:19
(UTC+00:00)

THORAD DELTA 1 DEB - Pass Details

Date: 23 February 2026
Orbit: 1451 x 1738 km, 101.5° (Epoch: 9 March)

Event Time Altitude Azimuth Distance (km) Brightness Sun altitude
Rises 21:24:04 0° 185° (S) 4,684 ? -46.8°
Reaches altitude 10° 21:27:19 10° 194° (SSW) 3,665 ? -47.6°
Maximum altitude 21:34:34 32° 253° (WSW) 2,306 ? -49.4°
Drops below altitude 10° 21:41:40 10° 313° (NW) 3,565 ? -51.1°
Sets 21:44:49 0° 323° (NW) 4,539 ? -51.8°
